STARLINK-3781, 52272

Orbit data source: Space-Track

STARLINK-3781, 52272 is a payload satellite owned by SpaceX/Seattle (US) in LEO that was launched on Thu, 21 Apr 2022 UTC via an FALCON 9 launch vehicle from the Air Force Eastern Test Range (AFETR). Payload-class satellites include a variety of spacecraft equipped with specific instruments for various scientific and technological missions. These include communications satellites like Starlink; space stations such as the ISS; scientific satellites like the Hubble; Earth observation satellites from companies like Planet Labs, Umbra, and HawkEye 360; GPS; miniature CubeSats for education and research; and military/defense satellites.

Loading next visibility...
Identifier
52272, 2022-041M
Orbit
LEO
Country
Flag of USUS
Related business
Manufacturer
SpaceX/Seattle
Mission
Operational Commercial Communications
Bus & Motor
STARLINK, Unknown motor
Mass
297 kg wet, ~275 kg dry
Launch date (UTC)
2022-04-21 (4 years ago)
Launch vehicle
FALCON 9
Launch site
Air Force Eastern Test Range (AFETR)
Object type
Payload
Rocket body
Debris
Shape & HBR
Box + 1 Pan, 10.1 m
Radar Cross Section
11.087 m², Large (>1 m²)

Expand to show TLE details & history
Last TLE update: 19 hours ago

TLE from 19 hours ago
0 STARLINK-3781
1 52272U 22041M   26175.19636268  .00113156  00000-0  68361-2 0  9992
2 52272  53.1594 350.8814 0001353 110.9391 249.1746 15.09783200230443
Epoch: 2026-06-24T04:42Z
TLE epoch observation values (Epoch: 2026-06-24T04:42:45.735Z)
Latitude
-0°
Longitude
7.83379°
Altitude
538.086 km
Speed
7.594 km/s
True Right ascension
23h 23m 31s
True Declination
0° 00' 00"
Sunlit
Object was in daylight at epoch
Visualization orbit readout
Latitude
Unknown
Longitude
Unknown
Altitude
Unknown
Speed
Unknown
Apparent Right ascension
Unknown
Apparent Declination
Unknown
Sunlit
N/A
Visualization observer readout
Local Sidereal Time
10:32:26
Azimuth
Unknown
Elevation
Unknown
Doppler factor
Unknown
Orbital elements
Apogee altitude
538.052 km
Perigee altitude
536.181 km
Semi-major axis
6,915.253 km
Eccentricity
0.00014
Inclination
53.1594°
RAAN
350.8814°
Arg. of periapsis
110.9391°
True anomaly
249.16011°
Mean anomaly
249.1746°
Eccentric anomaly
249.16735°
Mean motion
3.77425 °/min
Orbital period
95.38 mins
BSTAR
0.0068361
Loading maneuver chart data...
Computing Atmospheric mass density...
Loading historical data...
Loading historical data...
Loading historical data...
Loading historical data...
Loading historical data...
Loading historical data...
Loading historical data...

Documentation

Showing up to 5 results
|